DW0487 Weather Reports


Display with metric or nautical units.
time (UTC)temp
F
wind
direction
speed
MPH
gust
MPH
rain 1hr
in
rain 24hr
in
rain mn
in
humidity
%
barometer
mb
20260502213100 50 205 0.0 0.0 0.00 0.00 0.00 71 1017.5
20260502211607 50 205 0.0 3.0 0.00 0.00 0.00 71 1017.5
20260502210109 51 211 0.0 0.0 0.00 0.00 0.00 68 1017.6
20260502204558 53 211 0.0 0.0 0.00 0.00 0.00 65 1017.7
20260502203110 54 211 0.0 0.0 0.00 0.00 0.00 64 1017.6
20260502201558 55 219 0.0 0.0 0.00 0.00 0.00 62 1017.6
20260502200057 56 219 0.0 2.0 0.00 0.00 0.00 61 1017.6
20260502194557 57 196 0.0 2.0 0.00 0.00 0.00 60 1017.3
20260502193057 57 211 0.0 2.0 0.00 0.00 0.00 59 1017.2
20260502191557 58 208 2.0 3.0 0.00 0.00 0.00 57 1017.2
20260502190055 60 217 2.0 3.0 0.00 0.00 0.00 55 1017.1
20260502184554 61 302 0.0 2.0 0.00 0.00 0.00 52 1017.0
20260502183059 63 271 0.0 2.0 0.00 0.00 0.00 50 1016.8
20260502181554 65 311 0.0 3.0 0.00 0.00 0.00 45 1016.7
20260502163034 73 5 6.0 9.0 0.00 0.00 0.00 36 1016.7
20260502161628 73 19 6.0 13.0 0.00 0.00 0.00 37 1016.7
20260502151523 75 36 8.0 13.0 0.00 0.00 0.00 35 1017.1
20260502123006 74 334 6.0 12.0 0.00 0.00 0.00 33 1018.9
20260502121501 73 49 6.0 11.0 0.00 0.00 0.00 34 1019.2
20260502120114 73 347 3.0 12.0 0.00 0.00 0.00 32 1019.5
20260502114603 72 47 6.0 13.0 0.00 0.00 0.00 35 1019.7
20260502113057 72 355 4.0 9.0 0.00 0.00 0.00 33 1019.8
20260502111600 71 15 7.0 10.0 0.00 0.00 0.00 34 1020.2
20260502110053 71 350 5.0 11.0 0.00 0.00 0.00 34 1020.6
20260502104554 72 304 3.0 10.0 0.00 0.00 0.00 34 1020.6
20260502103049 73 333 2.0 9.0 0.00 0.00 0.00 28 1020.8
20260502101548 72 89 1.0 6.0 0.00 0.00 0.00 30 1021.0
20260502091531 70 40 3.0 6.0 0.00 0.00 0.00 30 1021.7
20260502070022 51 341 1.0 8.0 0.00 0.00 0.00 65 1023.5
20260502064515 48 35 2.0 4.0 0.00 0.00 0.00 73 1023.5
20260502063011 45 47 2.0 5.0 0.00 0.00 0.00 78 1023.6
20260502061507 42 37 1.0 4.0 0.00 0.00 0.00 85 1023.7
20260502060001 39 70 2.0 4.0 0.00 0.00 0.00 89 1023.8
20260502054557 37 46 1.0 2.0 0.00 0.00 0.00 91 1023.9
20260502053053 35 42 0.0 2.0 0.00 0.00 0.00 90 1024.1
20260502051629 33 96 0.0 0.0 0.00 0.00 0.00 89 1024.2
20260502050059 33 96 0.0 0.0 0.00 0.00 0.00 88 1024.2
20260502044557 33 96 0.0 0.0 0.00 0.00 0.00 88 1024.1
20260502043050 33 131 0.0 3.0 0.00 0.00 0.00 87 1024.2
20260502041548 33 169 0.0 0.0 0.00 0.00 0.00 87 1024.0
20260502040047 33 223 0.0 1.0 0.00 0.00 0.00 87 1023.9
20260502034547 33 118 0.0 0.0 0.00 0.00 0.00 86 1023.9
20260502033051 33 284 0.0 2.0 0.00 0.00 0.00 86 1024.0
20260502031602 33 188 0.0 0.0 0.00 0.00 0.00 85 1024.0
20260502030041 33 152 0.0 0.0 0.00 0.00 0.00 85 1024.0
20260502024539 34 152 0.0 0.0 0.00 0.00 0.00 84 1024.1
20260502023038 34 123 0.0 3.0 0.00 0.00 0.00 85 1024.0
20260502021536 34 142 0.0 3.0 0.00 0.00 0.00 84 1024.0
20260502020033 35 59 0.0 1.0 0.00 0.00 0.00 84 1024.2
20260502014533 35 23 0.0 1.0 0.00 0.00 0.00 83 1024.2
20260502013031 35 25 0.0 2.0 0.00 0.00 0.00 83 1024.3
20260502011531 36 86 0.0 0.0 0.00 0.00 0.00 82 1024.4
20260502010027 36 69 0.0 0.0 0.00 0.00 0.00 82 1024.6
20260502004525 37 120 0.0 2.0 0.00 0.00 0.00 82 1024.6
20260502003023 37 118 1.0 3.0 0.00 0.00 0.00 82 1024.7
20260502001521 37 200 0.0 3.0 0.00 0.00 0.00 81 1024.9
20260502000021 38 107 1.0 2.0 0.00 0.00 0.00 81 1024.8
20260501234515 38 208 0.0 0.0 0.00 0.00 0.00 79 1024.9
20260501233015 39 208 0.0 0.0 0.00 0.00 0.00 78 1025.0
20260501231525 39 228 0.0 3.0 0.00 0.00 0.00 77 1025.1
20260501230011 40 288 0.0 0.0 0.00 0.00 0.00 78 1025.0
20260501224506 40 176 0.0 0.0 0.00 0.00 0.00 76 1025.2
20260501223004 41 103 0.0 2.0 0.00 0.00 0.00 75 1025.2
20260501221601 42 173 0.0 0.0 0.00 0.00 0.00 71 1025.3
20260501220056 43 173 0.0 2.0 0.00 0.00 0.00 73 1025.2
20260501214604 43 203 0.0 2.0 0.00 0.00 0.00 72 1025.1